Regional Weather Roundup
Issued by NWS State College, PA

Home | Current Version | Previous Version | Graphics & Text | Print | Product List | Glossary Off
Versions: 1 2 3 4 5 6 7 8 9 10 11 12 13 14 15 16 17 18 19 20 21 22 23 24 25 26 27 28 29 30 31 32 33 34 35 36 37 38 39 40 41 42 43 44 45 46 47 48 49 50

000
ASUS41 KCTP 212310
RWRCTP

REGIONAL WEATHER ROUNDUP
NATIONAL WEATHER SERVICE STATE COLLEGE PA
600 PM EST SAT JAN 21 2017

Note: "fair" indicates few or no clouds below 12,000 feet with no
significant weather and/or obstructions to visibility.

* = STATION THAT DOES NOT REPORT PRECIPITATION /E.G. RAIN...SNOW...ETC/
    THUNDER OR FOG.

PAZ002>004-007>009-013>016-020>023-029>032-220000-
WESTERN PENNSYLVANIA

CITY           SKY/WX    TMP DP  RH WIND       PRES   REMARKS
ERIE           CLOUDY    60  50  69 S8        29.67R
MEADVILLE      CLOUDY    56  48  74 CALM      29.69S
FRANKLIN*        N/A     54  48  82 S5        29.72R
NEW CASTLE     FAIR      57  51  80 CALM      29.70R
BEAVER COUNTY  NOT AVBL
BUTLER*        CLOUDY    57  48  72 CALM      29.73S
PITTSBURGH INT CLOUDY    61  49  64 SW6       29.69S
PITTSBURGH     CLOUDY    61  47  59 CALM      29.70R
INDIANA*       CLEAR     57  48  72 CALM      29.74R
LATROBE        CLOUDY    59  48  67 S7        29.72R
WASHINGTON CO* CLOUDY    57  48  72 CALM      29.71R
$$

PAZ004>006-010>012-017>019-024>028-033>037-041-042-045-046-049>053-220000-
CENTRAL PENNSYLVANIA

CITY           SKY/WX    TMP DP  RH WIND       PRES   REMARKS
BRADFORD       CLOUDY    52  49  89 SE3       29.72R
DUBOIS         PTCLDY    57  45  64 CALM      29.71R
CLEARFIELD     PTCLDY    49  49 100 N6        29.73R
JOHNSTOWN      PTCLDY    54  46  74 S6        29.72R
ALTOONA        FOG       44  43  96 NE3       29.76R VSB 1/4
STATE COLLEGE  FOG       43  43 100 CALM      29.77R VSB 1/16
WILLIAMSPORT   CLOUDY    43  41  93 CALM      29.80R
SELINSGROVE    FOG       42  42 100 CALM      29.82R VSB 1
FT INDIANTOWN  CLOUDY    43  43 100 CALM      29.82R FOG
CAPITAL CITY   FOG       46  44  93 CALM      29.82R VSB 1/2
HARRISBURG     DRZL/FOG  43  43 100 CALM      29.81R VSB 1/4
YORK           CLOUDY    47  47 100 SE5       29.81R FOG
$$

PAZ038>040-043-044-047-048-054-055-060>062-067>071-220000-
EASTERN PENNSYLVANIA

CITY           SKY/WX    TMP DP  RH WIND       PRES   REMARKS
SCRANTON       FOG       45  45 100 E3        29.78F VSB 1/4
MOUNT POCONO   MOCLDY    45  43  93 CALM      29.78S
ALLENTOWN      FOG       45  42  89 W3        29.82R VSB 1/2
QUAKERTOWN*    CLOUDY    45  45 100 CALM      29.83R VSB 1/4
READING        FOG       45  45 100 CALM      29.81R VSB 1/2
LANCASTER      FOG       45  45 100 CALM      29.82R VSB 1/4
COATESVILLE    FOG       45  45 100 S5        29.83R VSB<1/4
POTTSTOWN      CLOUDY    45  44  97 CALM      29.83S FOG
BLUE BELL      CLOUDY    45  45 100 CALM      29.82R
DOYLESTOWN     FOG       45  45 100 CALM      29.82R VSB 3/4
WILLOW GROVE   NOT AVBL
NORTH PHILA    CLOUDY    47  46  97 W7        29.84S FOG
PHILADELPHIA   FOG       46  45  96 S5        29.84S VSB 3/4
$$



USA.gov is the U.S. government's official web portal to all federal, state and local government web resources and services.